Flag for Argentina Weather past 2 weeks in Tucumán, Tucumán, Argentina

Now
75 °F

Clear.


Feels Like: 78 °F
Forecast: 71 / 97 °F
Wind: 9 mph from Northwest

Location: Tucuman Aerodrome

Current Time: Oct 25, 2014 at 1:48:34 AM

Latest Report: Oct 25, 2014 at 1:00 AM


Visibility: 10 mi

Pressure: 29.92 "Hg

Humidity: 54%

Dew point: 57 °F

Location of TucumánLocation

Historic Weather in Tucumán — Graph

°F

Tucumán temperature yesterday

Maximum temperature yesterday: 99 °F (at 4:00 PM)
Minimum temperature yesterday: 66 °F (at 7:00 AM)
Average temperature yesterday: 83 °F

Past Weeks' High & Low Weather Summary

 TemperatureHumidityPressure
High100 °F (Oct 18, 4:00 PM)94% (Oct 19, 1:00 AM)30.21 "Hg (Oct 19, 1:00 AM)
Low50 °F (Oct 12, 6:00 AM)24% (Oct 24, 6:00 PM)29.50 "Hg (Oct 18, 4:00 PM)
Average75 °F61%29.94 "Hg
* Reported Midnight between Oct 9 and Oct 10 — Midnight between Oct 24 and Oct 25, Tucumán, Weather by CustomWeather, © 2014

Note: Actual official high and low records may vary slightly from our data, if they occured in-between our weather recording intervals... More about our weather records

Advertising

Tucumán weather history for previous 24 hours

 ConditionsComfort  
Time TempWeatherWind HumidityBarometerVisibility
12:00 AM
Oct 25
75 °FClear.7 mph57%29.92 "Hg10 mi
11:00 PM
Oct 24
79 °FClear.7 mph51%29.92 "Hg10 mi
10:00 PM82 °FClear.7 mph48%29.92 "Hg5 mi
9:00 PM86 °FClear.5 mph40%29.89 "Hg5 mi
8:00 PM91 °FClear.7 mph34%29.86 "Hg5 mi
7:00 PM95 °FClear.7 mph28%29.86 "Hg10 mi
6:00 PM99 °FSunny.5 mph24%29.83 "Hg10 mi
5:00 PM97 °FPassing clouds.No wind27%29.86 "HgN/A
4:00 PM99 °FPassing clouds.7 mph27%29.86 "HgN/A
3:00 PM97 °FPassing clouds.9 mph28%29.89 "HgN/A
2:00 PM95 °FPassing clouds.7 mph32%29.92 "HgN/A
1:00 PM91 °FPassing clouds.No wind36%29.95 "HgN/A
12:00 PM90 °FPassing clouds.2 mph38%29.98 "HgN/A
11:00 AM88 °FSunny.6 mph40%30.01 "Hg10 mi
10:00 AM82 °FSunny.3 mph51%30.01 "Hg10 mi
9:00 AM77 °FSunny.3 mph61%30.01 "Hg10 mi
8:00 AM72 °FSunny.3 mph69%29.98 "Hg10 mi
7:00 AM66 °FSunny.5 mph83%29.95 "Hg10 mi
6:00 AM68 °FSunny.9 mph78%29.92 "Hg10 mi
5:00 AM70 °FClear.9 mph78%29.92 "Hg10 mi
4:00 AM72 °FClear.9 mph73%29.92 "Hg10 mi
3:00 AM72 °FClear.10 mph73%29.92 "Hg10 mi
2:00 AM72 °FClear.10 mph73%29.92 "Hg10 mi
1:00 AM73 °FClear.9 mph74%29.95 "Hg10 mi
Weather by CustomWeather, © 2014

See weather overviewHow to use our weather pages